Houlton, ME

9:11 PM EDT on September 24, 2016 (GMT -0400)
Houlton International

Weather History for KHUL - June, 2013

Change the Weather History Date:

Friday, June 28, 2013

  Actual Average Record
Temperature  
Mean Temperature 55 °F 64 °F  
Max Temperature 58 °F 76 °F 93 °F (1946)
Min Temperature 51 °F 52 °F 36 °F (1971)
Degree Days  
Heating Degree Days 10 3  
Month to date heating degree days 197 172  
Since 1 June heating degree days 197 172  
Since 1 July heating degree days 8547 9179  
Cooling Degree Days 0 2  
Month to date cooling degree days 28 31  
Year to date cooling degree days 32 35  
Since 1 June cooling degree days 28 31  
Growing Degree Days 4 (Base 50)    
Moisture  
Dew Point 53 °F    
Average Humidity 95    
Maximum Humidity 100    
Minimum Humidity 89    
Precipitation  
Precipitation 0.44 in 0.13 in 1.59 in (1954)
Month to date precipitation 5.04 3.38  
Year to date precipitation 16.27 18.01  
Sea Level Pressure  
Sea Level Pressure 29.77 in    
Wind  
Wind Speed 10 mph (East)    
Max Wind Speed 20 mph    
Max Gust Speed 31 mph    
Visibility 7 miles    
Events Rain , Thunderstorm    
T = Trace of Precipitation, MM = Missing Value Source: NWS Daily Summary

Daily Weather History Graph

Daily Weather History Graph

Search for Another Location

Airport or City:

Trip Planner

Search our weather history database for the weather conditions in past years. The results will help you decide how hot, cold, wet, or windy it might be!

Date:

Astronomy

Jun. 28, 2013 Rise Set
Actual Time 4:42 AM EDT 8:26 PM EDT
Civil Twilight 4:03 AM EDT 9:05 PM EDT
Nautical Twilight 3:11 AM EDT 9:56 PM EDT
Astronomical Twilight 1:59 AM EDT 11:09 PM EDT
Moon 11:30 PM EDT (6/28) 11:07 AM EDT (6/28)
Length of Visible Light 17h 01m
Length of Day
15h 44m
Waning Gibbous, 66% of the Moon is Illuminated
Jun 28
Waning Gibbous
Jun 30
Last Quarter
Jul 8
New
Jul 15
First Quarter
Jul 22
Full

Hourly Weather History & Observations

Time (EDT) Temp. Dew Point Humidity Pressure Visibility Wind Dir Wind Speed Gust Speed Precip Events Conditions
12:53 AM 52.0 °F 51.1 °F 97% 29.95 in 8.0 mi East 4.6 mph - N/A   Overcast
1:53 AM 51.1 °F 50.0 °F 96% 29.94 in 5.0 mi East 5.8 mph - N/A   Overcast
2:53 AM 51.1 °F 50.0 °F 96% 29.93 in 10.0 mi East 6.9 mph - N/A   Overcast
3:53 AM 51.1 °F 50.0 °F 96% 29.92 in 10.0 mi Variable 4.6 mph - N/A   Overcast
4:53 AM 51.1 °F 48.9 °F 92% 29.89 in 10.0 mi NE 8.1 mph - 0.00 in Rain Light Rain
5:53 AM 51.1 °F 48.9 °F 92% 29.90 in 10.0 mi ENE 6.9 mph - 0.00 in   Overcast
6:53 AM 51.1 °F 48.9 °F 92% 29.90 in 10.0 mi East 11.5 mph 17.3 mph N/A   Overcast
7:53 AM 51.1 °F 50.0 °F 96% 29.90 in 7.0 mi East 10.4 mph 17.3 mph 0.01 in Rain Light Rain
8:53 AM 52.0 °F 50.0 °F 93% 29.88 in 10.0 mi East 10.4 mph - 0.00 in Rain Light Rain
9:53 AM 53.1 °F 51.1 °F 93% 29.85 in 10.0 mi East 6.9 mph - 0.01 in   Overcast
10:40 AM 53.6 °F 51.8 °F 94% 29.83 in 2.0 mi East 11.5 mph 18.4 mph 0.04 in Rain Rain
10:53 AM 54.0 °F 52.0 °F 93% 29.83 in 2.5 mi East 15.0 mph 21.9 mph 0.06 in Rain Light Rain
11:01 AM 53.6 °F 51.8 °F 94% 29.82 in 4.0 mi East 11.5 mph 21.9 mph 0.01 in Rain Light Rain
11:18 AM 53.6 °F 51.8 °F 94% 29.82 in 9.0 mi East 13.8 mph 19.6 mph 0.01 in Rain Light Rain
11:53 AM 54.0 °F 52.0 °F 93% 29.81 in 7.0 mi ENE 9.2 mph 17.3 mph 0.03 in Rain Light Rain
12:53 PM 55.0 °F 53.1 °F 93% 29.79 in 10.0 mi ENE 12.7 mph 23.0 mph 0.05 in Rain Light Rain
1:53 PM 55.0 °F 53.1 °F 93% 29.78 in 4.0 mi East 11.5 mph 24.2 mph 0.01 in   Overcast
2:20 PM 55.4 °F 53.6 °F 94% 29.76 in 2.0 mi East 10.4 mph 17.3 mph 0.02 in Rain Light Rain
2:44 PM 55.4 °F 53.6 °F 94% 29.74 in 4.0 mi East 10.4 mph 21.9 mph 0.02 in   Overcast
2:53 PM 55.9 °F 54.0 °F 93% 29.75 in 3.0 mi East 9.2 mph 20.7 mph 0.02 in Rain Light Rain
3:53 PM 55.9 °F 54.0 °F 93% 29.73 in 10.0 mi East 16.1 mph 21.9 mph 0.05 in Rain Light Rain
4:53 PM 55.9 °F 54.0 °F 93% 29.71 in 4.0 mi East 15.0 mph 21.9 mph 0.02 in Rain Light Rain
5:53 PM 55.9 °F 54.0 °F 93% 29.69 in 6.0 mi East 16.1 mph 23.0 mph 0.03 in Rain Light Rain
6:13 PM 57.2 °F 53.6 °F 88% 29.68 in 10.0 mi East 13.8 mph 20.7 mph 0.00 in   Overcast
6:53 PM 55.9 °F 54.0 °F 93% 29.68 in 6.0 mi ESE 12.7 mph 21.9 mph 0.00 in Rain Light Rain
7:29 PM 57.2 °F 53.6 °F 88% 29.67 in 9.0 mi East 13.8 mph 24.2 mph 0.00 in   Overcast
7:53 PM 55.9 °F 54.0 °F 93% 29.68 in 10.0 mi East 10.4 mph 24.2 mph 0.00 in   Overcast
8:53 PM 55.9 °F 55.0 °F 97% 29.68 in 4.0 mi Variable 6.9 mph 17.3 mph N/A   Overcast
9:41 PM 55.4 °F 55.4 °F 100% 29.68 in 2.5 mi East 6.9 mph - 0.09 in Rain Rain
9:47 PM 57.2 °F 55.4 °F 94% 29.67 in 4.0 mi East 9.2 mph - 0.10 in Rain , Thunderstorm Light Rain
9:48 PM 57.0 °F 55.0 °F 93% 29.68 in 5.0 mi East 8.1 mph - 0.10 in Rain , Thunderstorm Light Rain
10:08 PM 57.2 °F 55.4 °F 94% 29.67 in 4.0 mi East 9.2 mph 17.3 mph 0.05 in Rain Light Rain
10:13 PM 57.2 °F 55.4 °F 94% 29.67 in 7.0 mi East 9.2 mph 17.3 mph 0.05 in Rain Light Rain
10:18 PM 57.2 °F 55.4 °F 94% 29.67 in 10.0 mi East 8.1 mph 17.3 mph 0.05 in Rain Light Rain
10:45 PM 57.2 °F 55.4 °F 94% 29.66 in 7.0 mi East 8.1 mph - 0.05 in   Overcast
10:53 PM 57.0 °F 55.0 °F 93% 29.66 in 6.0 mi East 8.1 mph - 0.05 in   Overcast
11:10 PM 57.2 °F 55.4 °F 94% 29.65 in 7.0 mi Variable 4.6 mph - N/A   Overcast
11:53 PM 57.0 °F 55.9 °F 96% 29.64 in 4.0 mi East 5.8 mph - N/A   Overcast